Weather Service Report


459 
ASUS46 KSTO 030009
RWRCA 

NORTHERN AND CENTRAL CA REGIONAL WEATHER ROUNDUP
NATIONAL WEATHER SERVICE SACRAMENTO CA 
500 PM PDT THU JUL 02 2015

NOTE: FAIR INDICATES FEW OR NO CLOUDS BELOW 12,000 FEET WITH NO
SIGNIFICANT WEATHER AND/OR OBSTRUCTIONS TO VISIBILITY.

CAZ001-003-030100-
NORTHWEST AREA
  
CITY           SKY/WX    TMP DP  RH WIND       PRES   REMARKS
CRESCENT CITY  MOSUNNY   60  55  83 S16       29.93F                  
ARCATA         NOT AVBL                                               
SHELTER COVE   NOT AVBL                                               
UKIAH          SUNNY     97  57  26 SE8       29.84F HX  96           
$$

CAZ006-505>513-030100-
BAY AREA
  
CITY           SKY/WX    TMP DP  RH WIND       PRES   REMARKS
SANTA ROSA     MOSUNNY   73  57  57 S13       29.90S                  
SAN RAFAEL     N/A       75  MM  MM MISG
NAPA           MOSUNNY   74  58  57 S20G26    29.89F                  
CONCORD        MOSUNNY   88  44  21 VRB7      29.87F                  
OAKLAND CITY   N/A       70  MM  MM MISG
OAKLAND        PTSUNNY   67  58  72 NW17      29.92F                  
SAN FRAN CITY  N/A       63  MM  81 MISG
SAN FRAN ARPT  PTSUNNY   69  57  65 NW20      29.89F                  
LIVERMORE      MOSUNNY   87  55  33 W9        29.87F                  
HAYWARD        MOSUNNY   72  58  61 NW14      29.91F                  
REDWOOD CITY   N/A       MM  MM  MM MISG
MOFFETT ARPT   PTSUNNY   73  61  65 N13       29.91S                  
SAN JOSE ARPT  PTSUNNY   76  59  55 W9        29.90F                  
$$
CAZ034-037-514>518-030100-
CENTRAL COAST
  
CITY           SKY/WX    TMP DP  RH WIND       PRES   REMARKS
WATSONVILLE    CLOUDY    65  58  78 SW9       29.97R                  
SALINAS        CLOUDY    64  58  80 NW18      29.95R                  
MONTEREY       CLOUDY    65  56  72 SW17      29.96R                  
PT PIEDRAS BLS NOT AVBL                                               
SAN LUIS OBISP SUNNY     76  58  53 W12       29.95F                  
SANTA MARIA    MOSUNNY   74  59  59 NW9       29.97S                  
$$
CAZ015-016-030100-
NORTHERN SACRAMENTO VALLEY
  
CITY           SKY/WX    TMP DP  RH WIND       PRES   REMARKS
REDDING        SUNNY    107  54  17 SE14      29.76F HX 105           
RED BLUFF      SUNNY    103  57  21 SE15      29.78F HX 102           
OROVILLE       SUNNY    103  54  19 S10       29.81F HX 101           
$$
CAZ016>018-030100-
SOUTHERN SACRAMENTO VALLEY
  
CITY           SKY/WX    TMP DP  RH WIND       PRES   REMARKS
AUBURN         MOSUNNY   93  41  16 S9        29.92F                  
BEALE AFB      SUNNY     99  53  20 S14       29.78F HX  97           
LINCOLN        FAIR     100  34  10 SE14      29.80F HX  94           
MARYSVILLE     SUNNY    100  52  19 SE14      29.79F HX  97           
SAC INTL ARPT  PTSUNNY   94  58  29 S16       29.80F HX  93           
MATHER AIRPORT PTSUNNY   91  39  16 S12       29.84F                  
DOWNTOWN SAC   N/A       90  MM  MM MISG
SAC EXEC ARPT  MOSUNNY   89  58  34 S7        29.82F                  
VACAVILLE      MOSUNNY   95  55  26 S14G21    29.82F HX  93           
TRAVIS AFB     MOSUNNY   82  57  42 W25G31    29.82S                  
$$
CAZ019>021-030100-
SAN JOAQUIN VALLEY
  
CITY           SKY/WX    TMP DP  RH WIND       PRES   REMARKS
STOCKTON       MOSUNNY   94  52  24 NW8       29.84S HX  91           
MODESTO        PTSUNNY   97  53  22 NW5       29.83F HX  94           
MERCED         MOSUNNY   96  53  23 NW7       29.83F HX  93           
LEMOORE        PTSUNNY   96  55  25 N12       29.85S HX  94           
FRESNO         PTSUNNY   94  62  34 NE8       29.86S HX  94           
HANFORD        PTSUNNY   95  67  39 NW10      29.83F HX  99           
PORTERVILLE    MOSUNNY   99  54  22 W13       29.84F HX  96           
BAKERSFIELD    SUNNY    102  49  16 NW14      29.82F HX  99           
$$
CAZ011-012-071-030100-
NORTHERN MOUNTAINS
  
CITY           SKY/WX    TMP DP  RH WIND       PRES   REMARKS
YREKA          PTSUNNY  104  52  17 N16       29.91F HX 101           
MOUNT SHASTA   PTSUNNY   95  57  27 CALM      29.99F HX  94           
ALTURAS        PTSUNNY   99  39  12 W10       30.02F HX  94           
$$
CAZ011-012-071-030100-
SIERRA NEVADA MTNS
  
CITY           SKY/WX    TMP DP  RH WIND       PRES   REMARKS
BLUE CANYON    PTSUNNY   78  50  37 SW8       30.19F                  
TRUCKEE        PTSUNNY   73  61  64 SW5       30.20S                  
TAHOE VLY ARPT LGT RAIN  76  51  41 S7        30.24R                  
MAMMOTH LAKES  FAIR      79  39  24 E15G21    30.25F                  
$$
  

Return to Home page


Western Regional Climate Center, wrcc@dri.edu